• In India
  • List of Countries
  • For 7 days
  • Water Temperature
  • Satellite Maps
  • Weather Map
  • Weather Widgets
  • user-avatar
    Login

    Hourly Weather Consaca

    Today, 11 December, Monday

    Time Temperature Precipitation Wind Pressure Humidity
    00:00 +18°C° 1.2 mm 1 mps 620 mmHg 94%
    01:00 +18°C° 0 mm 1 mps 620 mmHg 93%
    02:00 +18°C° 0.8 mm 1 mps 619 mmHg 92%
    03:00 +18°C° 0.8 mm 1 mps 619 mmHg 92%
    04:00 +18°C° 0.8 mm 1 mps 619 mmHg 91%
    05:00 +18°C° 0.4 mm 1 mps 619 mmHg 90%
    06:00 +18°C° 0.4 mm 1 mps 620 mmHg 88%
    07:00 +18°C° 0.4 mm 1 mps 620 mmHg 87%
    08:00 +20°C° 0.2 mm 1 mps 621 mmHg 80%
    09:00 +22°C° 0.2 mm 1 mps 621 mmHg 73%
    10:00 +24°C° 0.2 mm 2 mps 622 mmHg 66%
    11:00 +23°C° 0.4 mm 2 mps 621 mmHg 69%
    12:00 +23°C° 0.4 mm 2 mps 620 mmHg 72%
    13:00 +23°C° 0.4 mm 2 mps 620 mmHg 74%
    14:00 +23°C° 0.8 mm 2 mps 619 mmHg 78%
    15:00 +21°C° 0.8 mm 2 mps 619 mmHg 81%
    16:00 +20°C° 0.8 mm 2 mps 618 mmHg 85%
    17:00 +19°C° 0.7 mm 2 mps 618 mmHg 88%
    18:00 +19°C° 0.7 mm 1 mps 618 mmHg 91%
    19:00 +19°C° 0.7 mm 1 mps 618 mmHg 94%
    20:00 +18°C° 0.3 mm 1 mps 619 mmHg 93%
    21:00 +18°C° 0.3 mm 1 mps 619 mmHg 93%
    22:00 +18°C° 0.3 mm 1 mps 620 mmHg 92%
    23:00 +18°C° 0.1 mm 1 mps 620 mmHg 92%

    Tomorrow, 12 December, Tuesday

    Time Temperature Precipitation Wind Pressure Humidity
    00:00 +18°C° 0.1 mm 1 mps 620 mmHg 91%
    01:00 +16°C° 0.1 mm 1 mps 619 mmHg 91%
    02:00 +16°C° 0 mm 1 mps 619 mmHg 90%
    03:00 +16°C° 0 mm 1 mps 619 mmHg 90%
    04:00 +16°C° 0 mm 1 mps 619 mmHg 90%
    05:00 +16°C° 0 mm 1 mps 619 mmHg 88%
    06:00 +18°C° 0 mm 1 mps 619 mmHg 86%
    07:00 +18°C° 0 mm 1 mps 620 mmHg 85%
    08:00 +20°C° 0 mm 1 mps 620 mmHg 77%
    09:00 +22°C° 0 mm 1 mps 621 mmHg 70%
    10:00 +23°C° 0 mm 2 mps 622 mmHg 62%
    11:00 +23°C° 0.3 mm 2 mps 621 mmHg 64%
    12:00 +23°C° 0.3 mm 2 mps 621 mmHg 66%
    13:00 +23°C° 0.3 mm 2 mps 620 mmHg 68%
    14:00 +23°C° 0.7 mm 2 mps 620 mmHg 71%
    15:00 +21°C° 0.7 mm 2 mps 619 mmHg 75%
    16:00 +20°C° 0.7 mm 2 mps 619 mmHg 78%
    17:00 +19°C° 0.8 mm 2 mps 619 mmHg 83%
    18:00 +19°C° 0.8 mm 1 mps 619 mmHg 89%
    19:00 +18°C° 0.8 mm 1 mps 619 mmHg 94%
    20:00 +18°C° 0.4 mm 1 mps 619 mmHg 94%
    21:00 +16°C° 0.4 mm 1 mps 620 mmHg 93%
    22:00 +16°C° 0.4 mm 1 mps 620 mmHg 93%
    23:00 +16°C° 0.1 mm 1 mps 620 mmHg 92%

    Day after tomorrow, 13 December, Wednesday

    Time Temperature Precipitation Wind Pressure Humidity
    00:00 +16°C° 0.1 mm 1 mps 619 mmHg 91%
    01:00 +16°C° 0.1 mm 1 mps 619 mmHg 90%
    02:00 +16°C° 0 mm 1 mps 619 mmHg 90%
    03:00 +16°C° 0 mm 1 mps 619 mmHg 89%
    04:00 +15°C° 0 mm 1 mps 619 mmHg 89%
    05:00 +16°C° 0 mm 1 mps 619 mmHg 86%
    06:00 +16°C° 0 mm 1 mps 620 mmHg 84%
    07:00 +18°C° 0 mm 1 mps 620 mmHg 82%
    08:00 +20°C° 0 mm 1 mps 621 mmHg 71%
    09:00 +22°C° 0 mm 1 mps 622 mmHg 61%
    10:00 +24°C° 0 mm 2 mps 623 mmHg 51%
    11:00 +25°C° 0.1 mm 2 mps 622 mmHg 52%
    12:00 +25°C° 0.1 mm 2 mps 622 mmHg 52%
    13:00 +26°C° 0.1 mm 3 mps 621 mmHg 53%
    14:00 +25°C° 0.3 mm 3 mps 621 mmHg 58%
    15:00 +24°C° 0.3 mm 2 mps 620 mmHg 63%
    16:00 +23°C° 0.3 mm 2 mps 619 mmHg 68%
    17:00 +21°C° 0.2 mm 2 mps 619 mmHg 76%
    18:00 +20°C° 0.2 mm 1 mps 619 mmHg 85%
    19:00 +18°C° 0.2 mm 1 mps 619 mmHg 94%
    20:00 +18°C° 0 mm 1 mps 619 mmHg 93%
    21:00 +18°C° 0 mm 1 mps 620 mmHg 93%
    22:00 +18°C° 0 mm 1 mps 620 mmHg 92%
    23:00 +18°C° 0 mm 1 mps 620 mmHg 92%

    14 December, Thursday

    Time Temperature Precipitation Wind Pressure Humidity
    00:00 +16°C° 0 mm 1 mps 619 mmHg 91%
    01:00 +16°C° 0 mm 1 mps 619 mmHg 91%
    02:00 +16°C° 0 mm 1 mps 619 mmHg 91%
    03:00 +16°C° 0 mm 1 mps 618 mmHg 91%
    04:00 +16°C° 0 mm 1 mps 618 mmHg 91%
    05:00 +16°C° 0 mm 1 mps 619 mmHg 89%
    06:00 +18°C° 0 mm 1 mps 619 mmHg 87%
    07:00 +18°C° 0 mm 1 mps 620 mmHg 85%
    08:00 +20°C° 0 mm 1 mps 620 mmHg 79%
    09:00 +21°C° 0 mm 2 mps 621 mmHg 72%
    10:00 +23°C° 0 mm 2 mps 622 mmHg 65%
    11:00 +23°C° 0.1 mm 2 mps 621 mmHg 66%
    12:00 +24°C° 0.1 mm 2 mps 620 mmHg 67%
    13:00 +24°C° 0.1 mm 2 mps 620 mmHg 67%
    14:00 +23°C° 0.2 mm 2 mps 619 mmHg 70%
    15:00 +23°C° 0.2 mm 2 mps 619 mmHg 73%
    16:00 +21°C° 0.2 mm 2 mps 618 mmHg 76%
    17:00 +21°C° 0.2 mm 1 mps 618 mmHg 82%
    18:00 +20°C° 0.2 mm 1 mps 618 mmHg 89%
    19:00 +19°C° 0.2 mm 1 mps 619 mmHg 95%
    20:00 +19°C° 0.1 mm 1 mps 619 mmHg 94%
    21:00 +18°C° 0.1 mm 1 mps 620 mmHg 94%
    22:00 +18°C° 0.1 mm 1 mps 620 mmHg 93%
    23:00 +18°C° 0.1 mm 1 mps 620 mmHg 91%

    15 December, Friday

    Time Temperature Precipitation Wind Pressure Humidity
    00:00 +16°C° 0.1 mm 1 mps 619 mmHg 90%
    01:00 +16°C° 0.1 mm 2 mps 619 mmHg 89%
    02:00 +16°C° 0 mm 1 mps 618 mmHg 89%
    03:00 +16°C° 0 mm 1 mps 618 mmHg 89%
    04:00 +16°C° 0 mm 1 mps 618 mmHg 89%
    05:00 +16°C° 0 mm 1 mps 618 mmHg 88%
    06:00 +16°C° 0 mm 1 mps 619 mmHg 87%
    07:00 +18°C° 0 mm 1 mps 620 mmHg 85%
    08:00 +19°C° 0 mm 2 mps 620 mmHg 74%
    09:00 +21°C° 0 mm 2 mps 621 mmHg 63%
    10:00 +24°C° 0 mm 2 mps 622 mmHg 52%
    11:00 +24°C° 0 mm 3 mps 622 mmHg 51%
    12:00 +25°C° 0 mm 3 mps 621 mmHg 50%
    13:00 +25°C° 0 mm 3 mps 621 mmHg 50%
    14:00 +25°C° 0.1 mm 3 mps 620 mmHg 53%
    15:00 +24°C° 0.1 mm 2 mps 619 mmHg 57%
    16:00 +23°C° 0.1 mm 2 mps 619 mmHg 61%
    17:00 +20°C° 0.1 mm 2 mps 618 mmHg 69%
    18:00 +19°C° 0.1 mm 1 mps 618 mmHg 76%
    19:00 +18°C° 0.1 mm 1 mps 618 mmHg 83%
    20:00 +16°C° 0.1 mm 1 mps 619 mmHg 81%
    21:00 +16°C° 0.1 mm 1 mps 619 mmHg 79%
    22:00 +16°C° 0.1 mm 1 mps 619 mmHg 77%
    23:00 +15°C° 0 mm 1 mps 619 mmHg 74%

    16 December, Saturday

    Time Temperature Precipitation Wind Pressure Humidity
    00:00 +15°C° 0 mm 1 mps 619 mmHg 72%
    01:00 +15°C° 0 mm 1 mps 618 mmHg 70%
    02:00 +15°C° 0 mm 1 mps 618 mmHg 70%
    03:00 +15°C° 0 mm 1 mps 618 mmHg 69%
    04:00 +15°C° 0 mm 1 mps 618 mmHg 69%
    05:00 +15°C° 0 mm 1 mps 618 mmHg 69%
    06:00 +16°C° 0 mm 1 mps 619 mmHg 70%
    07:00 +18°C° 0 mm 1 mps 620 mmHg 70%
    08:00 +19°C° 0 mm 2 mps 620 mmHg 65%
    09:00 +21°C° 0 mm 2 mps 621 mmHg 60%
    10:00 +25°C° 0 mm 2 mps 622 mmHg 55%
    11:00 +25°C° 0.1 mm 2 mps 622 mmHg 57%
    12:00 +24°C° 0.1 mm 2 mps 621 mmHg 59%
    13:00 +24°C° 0.1 mm 2 mps 620 mmHg 62%
    14:00 +24°C° 0.3 mm 2 mps 619 mmHg 65%
    15:00 +23°C° 0.3 mm 2 mps 619 mmHg 69%
    16:00 +23°C° 0.3 mm 2 mps 618 mmHg 72%
    17:00 +20°C° 0.2 mm 2 mps 618 mmHg 79%
    18:00 +20°C° 0.2 mm 1 mps 618 mmHg 86%
    19:00 +19°C° 0.2 mm 1 mps 618 mmHg 92%
    20:00 +19°C° 0.1 mm 1 mps 618 mmHg 92%
    21:00 +19°C° 0.1 mm 1 mps 619 mmHg 91%
    22:00 +18°C° 0.1 mm 1 mps 619 mmHg 90%
    23:00 +18°C° 0.1 mm 1 mps 619 mmHg 90%
    Show more